Year,Month,Day,Hour,Minute,Value (Times are PST for windspeed in km/hr)
2015,10,10,00,00,27.20
2015,10,10,00,01,30.60
2015,10,10,00,02,21.30
2015,10,10,00,03,21.90
2015,10,10,00,04,31.20
2015,10,10,00,05,24.60
2015,10,10,00,06,20.00
2015,10,10,00,07,24.70
2015,10,10,00,08,26.30
2015,10,10,00,09,38.60
2015,10,10,00,10,34.90
2015,10,10,00,11,30.80
2015,10,10,00,12,29.40
2015,10,10,00,13,25.80
2015,10,10,00,14,29.70
2015,10,10,00,15,31.20
2015,10,10,00,16,19.80
2015,10,10,00,17,22.00
2015,10,10,00,18,27.70
2015,10,10,00,19,22.20
2015,10,10,00,20,17.60
2015,10,10,00,21,18.10
2015,10,10,00,22,25.00
2015,10,10,00,23,23.10
2015,10,10,00,24,17.00
2015,10,10,00,25,9.60
2015,10,10,00,26,24.00
2015,10,10,00,27,27.90
2015,10,10,00,28,20.70
2015,10,10,00,29,14.40
2015,10,10,00,30,21.70
2015,10,10,00,31,20.60
2015,10,10,00,32,19.10
2015,10,10,00,33,20.50
2015,10,10,00,34,21.10
2015,10,10,00,35,24.90
2015,10,10,00,36,30.70
2015,10,10,00,37,26.30
2015,10,10,00,38,31.70
2015,10,10,00,39,15.00
2015,10,10,00,40,14.80
2015,10,10,00,41,20.40
2015,10,10,00,42,18.20
2015,10,10,00,43,13.70
2015,10,10,00,44,20.40
2015,10,10,00,45,19.10
2015,10,10,00,46,20.70
2015,10,10,00,47,27.20
2015,10,10,00,48,24.40
2015,10,10,00,49,20.30
2015,10,10,00,50,22.70
2015,10,10,00,51,17.30
2015,10,10,00,52,13.10
2015,10,10,00,53,16.00
2015,10,10,00,54,25.90
2015,10,10,00,55,16.50
2015,10,10,00,56,20.90
2015,10,10,00,57,19.10
2015,10,10,00,58,17.40
2015,10,10,00,59,13.60
2015,10,10,01,00,13.70
2015,10,10,01,01,23.20
2015,10,10,01,02,13.50
2015,10,10,01,03,15.60
2015,10,10,01,04,20.10
2015,10,10,01,05,19.80
2015,10,10,01,06,15.90
2015,10,10,01,07,17.10
2015,10,10,01,08,19.00
2015,10,10,01,09,14.00
2015,10,10,01,10,16.70
2015,10,10,01,11,11.10
2015,10,10,01,12,21.70
2015,10,10,01,13,19.70
2015,10,10,01,14,20.00
2015,10,10,01,15,15.20
2015,10,10,01,16,11.00
2015,10,10,01,17,15.50
2015,10,10,01,18,22.20
2015,10,10,01,19,18.60
2015,10,10,01,20,22.30
2015,10,10,01,21,16.70
2015,10,10,01,22,14.00
2015,10,10,01,23,12.70
2015,10,10,01,24,14.30
2015,10,10,01,25,21.50
2015,10,10,01,26,17.00
2015,10,10,01,27,26.90
2015,10,10,01,28,19.90
2015,10,10,01,29,17.00
2015,10,10,01,30,25.50
2015,10,10,01,31,15.80
2015,10,10,01,32,14.20
2015,10,10,01,33,15.70
2015,10,10,01,34,19.50
2015,10,10,01,35,15.70
2015,10,10,01,36,20.30
2015,10,10,01,37,22.30
2015,10,10,01,38,15.70
2015,10,10,01,39,25.80
2015,10,10,01,40,29.30
2015,10,10,01,41,11.60
2015,10,10,01,42,16.70
2015,10,10,01,43,19.20
2015,10,10,01,44,19.30
2015,10,10,01,45,25.20
2015,10,10,01,46,13.40
2015,10,10,01,47,11.30
2015,10,10,01,48,16.90
2015,10,10,01,49,9.70
2015,10,10,01,50,12.80
2015,10,10,01,51,13.10
2015,10,10,01,52,15.00
2015,10,10,01,53,16.00
2015,10,10,01,54,18.80
2015,10,10,01,55,12.50
2015,10,10,01,56,19.00
2015,10,10,01,57,12.50
2015,10,10,01,58,22.00
2015,10,10,01,59,15.90
2015,10,10,02,00,14.20
2015,10,10,02,01,12.80
2015,10,10,02,02,12.90
2015,10,10,02,03,11.20
2015,10,10,02,04,9.10
2015,10,10,02,05,16.90
2015,10,10,02,06,16.80
2015,10,10,02,07,19.20
2015,10,10,02,08,14.50
2015,10,10,02,09,13.40
2015,10,10,02,10,16.50
2015,10,10,02,11,10.60
2015,10,10,02,12,9.70
2015,10,10,02,13,11.60
2015,10,10,02,14,11.90
2015,10,10,02,15,8.70
2015,10,10,02,16,7.70
2015,10,10,02,17,18.30
2015,10,10,02,18,13.60
2015,10,10,02,19,14.50
2015,10,10,02,20,7.50
2015,10,10,02,21,11.90
2015,10,10,02,22,8.10
2015,10,10,02,23,7.80
2015,10,10,02,24,11.30
2015,10,10,02,25,13.70
2015,10,10,02,26,8.20
2015,10,10,02,27,13.10
2015,10,10,02,28,12.30
2015,10,10,02,29,11.10
2015,10,10,02,30,7.00
2015,10,10,02,31,7.30
2015,10,10,02,32,13.60
2015,10,10,02,33,5.90
2015,10,10,02,34,13.50
2015,10,10,02,35,11.60
2015,10,10,02,36,10.70
2015,10,10,02,37,13.00
2015,10,10,02,38,12.20
2015,10,10,02,39,12.40
2015,10,10,02,40,17.20
2015,10,10,02,41,17.80
2015,10,10,02,42,16.10
2015,10,10,02,43,11.80
2015,10,10,02,44,12.50
2015,10,10,02,45,13.20
2015,10,10,02,46,15.90
2015,10,10,02,47,11.90
2015,10,10,02,48,12.60
2015,10,10,02,49,13.10
2015,10,10,02,50,18.10
2015,10,10,02,51,22.20
2015,10,10,02,52,15.90
2015,10,10,02,53,15.60
2015,10,10,02,54,16.40
2015,10,10,02,55,17.70
2015,10,10,02,56,10.10
2015,10,10,02,57,14.60
2015,10,10,02,58,10.80
2015,10,10,02,59,17.00
2015,10,10,03,00,12.20
2015,10,10,03,01,20.00
2015,10,10,03,02,15.30
2015,10,10,03,03,15.10
2015,10,10,03,04,16.20
2015,10,10,03,05,15.40
2015,10,10,03,06,19.80
2015,10,10,03,07,21.80
2015,10,10,03,08,17.50
2015,10,10,03,09,8.40
2015,10,10,03,10,11.30
2015,10,10,03,11,15.50
2015,10,10,03,12,15.00
2015,10,10,03,13,15.70
2015,10,10,03,14,18.80
2015,10,10,03,15,9.40
2015,10,10,03,16,7.90
2015,10,10,03,17,14.00
2015,10,10,03,18,7.40
2015,10,10,03,19,14.10
2015,10,10,03,20,17.30
2015,10,10,03,21,11.70
2015,10,10,03,22,20.60
2015,10,10,03,23,14.50
2015,10,10,03,24,12.60
2015,10,10,03,25,13.50
2015,10,10,03,26,10.80
2015,10,10,03,27,16.40
2015,10,10,03,28,23.80
2015,10,10,03,29,11.10
2015,10,10,03,30,15.60
2015,10,10,03,31,20.00
2015,10,10,03,32,21.50
2015,10,10,03,33,13.90
2015,10,10,03,34,20.70
2015,10,10,03,35,14.80
2015,10,10,03,36,18.60
2015,10,10,03,37,15.50
2015,10,10,03,38,18.40
2015,10,10,03,39,14.00
2015,10,10,03,40,20.10
2015,10,10,03,41,16.50
2015,10,10,03,42,19.30
2015,10,10,03,43,8.50
2015,10,10,03,44,22.70
2015,10,10,03,45,15.80
2015,10,10,03,46,16.70
2015,10,10,03,47,19.40
2015,10,10,03,48,15.10
2015,10,10,03,49,16.60
2015,10,10,03,50,20.30
2015,10,10,03,51,18.20
2015,10,10,03,52,13.10
2015,10,10,03,53,16.30
2015,10,10,03,54,12.50
2015,10,10,03,55,11.20
2015,10,10,03,56,10.30
2015,10,10,03,57,14.10
2015,10,10,03,58,17.60
2015,10,10,03,59,19.40
2015,10,10,04,00,17.20
2015,10,10,04,01,16.30
2015,10,10,04,02,14.80
2015,10,10,04,03,15.70
2015,10,10,04,04,14.10
2015,10,10,04,05,10.70
2015,10,10,04,06,15.80
2015,10,10,04,07,8.60
2015,10,10,04,08,18.20
2015,10,10,04,09,19.00
2015,10,10,04,10,14.40
2015,10,10,04,11,11.30
2015,10,10,04,12,8.20
2015,10,10,04,13,14.40
2015,10,10,04,14,16.10
2015,10,10,04,15,16.00
2015,10,10,04,16,10.10
2015,10,10,04,17,17.40
2015,10,10,04,18,16.50
2015,10,10,04,19,13.70
2015,10,10,04,20,9.50
2015,10,10,04,21,13.20
2015,10,10,04,22,14.10
2015,10,10,04,23,15.60
2015,10,10,04,24,10.90
2015,10,10,04,25,9.50
2015,10,10,04,26,5.20
2015,10,10,04,27,13.10
2015,10,10,04,28,14.50
2015,10,10,04,29,12.50
2015,10,10,04,30,16.00
2015,10,10,04,31,21.20
2015,10,10,04,32,16.40
2015,10,10,04,33,17.70
2015,10,10,04,34,19.10
2015,10,10,04,35,19.00
2015,10,10,04,36,24.80
2015,10,10,04,37,17.10
2015,10,10,04,38,20.30
2015,10,10,04,39,11.90
2015,10,10,04,40,11.10
2015,10,10,04,41,17.30
2015,10,10,04,42,21.50
2015,10,10,04,43,12.10
2015,10,10,04,44,19.80
2015,10,10,04,45,12.20
2015,10,10,04,46,13.00
2015,10,10,04,47,14.70
2015,10,10,04,48,12.40
2015,10,10,04,49,16.30
2015,10,10,04,50,22.90
2015,10,10,04,51,15.70
2015,10,10,04,52,19.00
2015,10,10,04,53,22.40
2015,10,10,04,54,19.00
2015,10,10,04,55,11.10
2015,10,10,04,56,12.10
2015,10,10,04,57,14.20
2015,10,10,04,58,12.70
2015,10,10,04,59,18.30
2015,10,10,05,00,7.00
2015,10,10,05,01,13.90
2015,10,10,05,02,9.10
2015,10,10,05,03,6.70
2015,10,10,05,04,7.60
2015,10,10,05,05,5.20
2015,10,10,05,06,6.60
2015,10,10,05,07,4.50
2015,10,10,05,08,5.10
2015,10,10,05,09,4.20
2015,10,10,05,10,3.70
2015,10,10,05,11,1.80
2015,10,10,05,12,4.20
2015,10,10,05,13,3.70
2015,10,10,05,14,5.60
2015,10,10,05,15,4.90
2015,10,10,05,16,4.30
2015,10,10,05,17,3.20
2015,10,10,05,18,1.50
2015,10,10,05,19,2.50
2015,10,10,05,20,3.50
2015,10,10,05,21,3.90
2015,10,10,05,22,6.10
2015,10,10,05,23,5.10
2015,10,10,05,24,5.10
2015,10,10,05,25,3.50
2015,10,10,05,26,5.40
2015,10,10,05,27,3.90
2015,10,10,05,28,1.80
2015,10,10,05,29,6.10
2015,10,10,05,30,2.70
2015,10,10,05,31,5.00
2015,10,10,05,32,5.40
2015,10,10,05,33,5.40
2015,10,10,05,34,7.50
2015,10,10,05,35,9.50
2015,10,10,05,36,6.00
2015,10,10,05,37,3.70
2015,10,10,05,38,7.90
2015,10,10,05,39,12.80
2015,10,10,05,40,6.70
2015,10,10,05,41,13.40
2015,10,10,05,42,13.30
2015,10,10,05,43,10.20
2015,10,10,05,44,11.70
2015,10,10,05,45,8.20
2015,10,10,05,46,11.30
2015,10,10,05,47,11.60
2015,10,10,05,48,13.10
2015,10,10,05,49,11.30
2015,10,10,05,50,9.50
2015,10,10,05,51,11.20
2015,10,10,05,52,9.20
2015,10,10,05,53,10.30
2015,10,10,05,54,7.00
2015,10,10,05,55,5.70
2015,10,10,05,56,8.90
2015,10,10,05,57,5.30
2015,10,10,05,58,6.30
2015,10,10,05,59,6.40
2015,10,10,06,00,9.50
2015,10,10,06,01,10.30
2015,10,10,06,02,5.50
2015,10,10,06,03,8.00
2015,10,10,06,04,9.20
2015,10,10,06,05,19.00
2015,10,10,06,06,15.30
2015,10,10,06,07,11.40
2015,10,10,06,08,7.80
2015,10,10,06,09,17.20
2015,10,10,06,10,15.50
2015,10,10,06,11,9.80
2015,10,10,06,12,7.00
2015,10,10,06,13,11.40
2015,10,10,06,14,8.70
2015,10,10,06,15,6.50
2015,10,10,06,16,12.10
2015,10,10,06,17,7.90
2015,10,10,06,18,10.80
2015,10,10,06,19,9.50
2015,10,10,06,20,8.80
2015,10,10,06,21,8.20
2015,10,10,06,22,7.00
2015,10,10,06,23,7.30
2015,10,10,06,24,10.10
2015,10,10,06,25,12.80
2015,10,10,06,26,5.10
2015,10,10,06,27,7.90
2015,10,10,06,28,8.20
2015,10,10,06,29,12.00
2015,10,10,06,30,7.60
2015,10,10,06,31,6.30
2015,10,10,06,32,7.90
2015,10,10,06,33,5.40
2015,10,10,06,34,3.90
2015,10,10,06,35,6.40
2015,10,10,06,36,6.50
2015,10,10,06,37,10.30
2015,10,10,06,38,6.90
2015,10,10,06,39,7.30
2015,10,10,06,40,4.20
2015,10,10,06,41,11.60
2015,10,10,06,42,9.80
2015,10,10,06,43,10.70
2015,10,10,06,44,16.70
2015,10,10,06,45,11.60
2015,10,10,06,46,7.60
2015,10,10,06,47,7.10
2015,10,10,06,48,7.70
2015,10,10,06,49,9.50
2015,10,10,06,50,18.90
2015,10,10,06,51,10.70
2015,10,10,06,52,13.50
2015,10,10,06,53,7.70
2015,10,10,06,54,7.80
2015,10,10,06,55,7.40
2015,10,10,06,56,9.50
2015,10,10,06,57,6.90
2015,10,10,06,58,10.20
2015,10,10,06,59,6.40
2015,10,10,07,00,9.10
2015,10,10,07,01,7.00
2015,10,10,07,02,4.50
2015,10,10,07,03,11.80
2015,10,10,07,04,13.80
2015,10,10,07,05,7.00
2015,10,10,07,06,9.10
2015,10,10,07,07,19.80
2015,10,10,07,08,14.50
2015,10,10,07,09,13.80
2015,10,10,07,10,11.10
2015,10,10,07,11,15.70
2015,10,10,07,12,16.60
2015,10,10,07,13,10.80
2015,10,10,07,14,12.00
2015,10,10,07,15,13.80
2015,10,10,07,16,12.30
2015,10,10,07,17,15.20
2015,10,10,07,18,10.70
2015,10,10,07,19,14.20
2015,10,10,07,20,10.00
2015,10,10,07,21,13.40
2015,10,10,07,22,11.00
2015,10,10,07,23,14.80
2015,10,10,07,24,9.20
2015,10,10,07,25,8.50
2015,10,10,07,26,9.60
2015,10,10,07,27,6.50
2015,10,10,07,28,6.00
2015,10,10,07,29,17.20
2015,10,10,07,30,10.10
2015,10,10,07,31,8.60
2015,10,10,07,32,11.00
2015,10,10,07,33,13.20
2015,10,10,07,34,10.20
2015,10,10,07,35,10.30
2015,10,10,07,36,9.50
2015,10,10,07,37,3.70
2015,10,10,07,38,3.80
2015,10,10,07,39,6.40
2015,10,10,07,40,10.80
2015,10,10,07,41,14.00
2015,10,10,07,42,12.40
2015,10,10,07,43,10.70
2015,10,10,07,44,9.50
2015,10,10,07,45,7.70
2015,10,10,07,46,10.80
2015,10,10,07,47,11.60
2015,10,10,07,48,6.40
2015,10,10,07,49,13.50
2015,10,10,07,50,12.20
2015,10,10,07,51,11.60
2015,10,10,07,52,7.70
2015,10,10,07,53,9.50
2015,10,10,07,54,11.90
2015,10,10,07,55,10.40
2015,10,10,07,56,10.90
2015,10,10,07,57,6.00
2015,10,10,07,58,7.70
2015,10,10,07,59,7.50
2015,10,10,08,00,14.80
2015,10,10,08,01,17.20
2015,10,10,08,02,9.80
2015,10,10,08,03,9.80
2015,10,10,08,04,8.90
2015,10,10,08,05,7.20
2015,10,10,08,06,6.10
2015,10,10,08,07,5.50
2015,10,10,08,08,9.20
2015,10,10,08,09,6.90
2015,10,10,08,10,9.30
2015,10,10,08,11,11.70
2015,10,10,08,12,10.40
2015,10,10,08,13,7.30
2015,10,10,08,14,12.80
2015,10,10,08,15,11.00
2015,10,10,08,16,8.70
2015,10,10,08,17,11.70
2015,10,10,08,18,17.20
2015,10,10,08,19,17.10
2015,10,10,08,20,13.60
2015,10,10,08,21,15.50
2015,10,10,08,22,19.30
2015,10,10,08,23,15.60
2015,10,10,08,24,12.70
2015,10,10,08,25,9.70
2015,10,10,08,26,12.10
2015,10,10,08,27,14.70
2015,10,10,08,28,7.80
2015,10,10,08,29,13.90
2015,10,10,08,30,7.10
2015,10,10,08,31,11.00
2015,10,10,08,32,13.60
2015,10,10,08,33,14.50
2015,10,10,08,34,11.60
2015,10,10,08,35,11.00
2015,10,10,08,36,12.40
2015,10,10,08,37,15.30
2015,10,10,08,38,15.60
2015,10,10,08,39,13.10
2015,10,10,08,40,7.00
2015,10,10,08,41,11.20
2015,10,10,08,42,14.60
2015,10,10,08,43,15.80
2015,10,10,08,44,11.90
2015,10,10,08,45,13.50
2015,10,10,08,46,16.10
2015,10,10,08,47,16.10
2015,10,10,08,48,16.90
2015,10,10,08,49,8.80
2015,10,10,08,50,6.10
2015,10,10,08,51,7.80
2015,10,10,08,52,13.80
2015,10,10,08,53,12.70
2015,10,10,08,54,6.90
2015,10,10,08,55,11.00
2015,10,10,08,56,7.40
2015,10,10,08,57,13.80
2015,10,10,08,58,7.20
2015,10,10,08,59,5.40
2015,10,10,09,00,7.10
2015,10,10,09,01,12.10
2015,10,10,09,02,7.90
2015,10,10,09,03,7.00
2015,10,10,09,04,6.80
2015,10,10,09,05,6.40
2015,10,10,09,06,3.00
2015,10,10,09,07,3.60
2015,10,10,09,08,4.20
2015,10,10,09,09,6.30
2015,10,10,09,10,4.00
2015,10,10,09,11,5.00
2015,10,10,09,12,4.10
2015,10,10,09,13,0.70
2015,10,10,09,14,1.30
2015,10,10,09,15,1.70
2015,10,10,09,16,5.30
2015,10,10,09,17,7.70
2015,10,10,09,18,4.20
2015,10,10,09,19,4.20
2015,10,10,09,20,8.20
2015,10,10,09,21,7.70
2015,10,10,09,22,18.80
2015,10,10,09,23,9.10
2015,10,10,09,24,3.40
2015,10,10,09,25,4.60
2015,10,10,09,26,8.50
2015,10,10,09,27,7.30
2015,10,10,09,28,2.60
2015,10,10,09,29,3.90
2015,10,10,09,30,1.80
2015,10,10,09,31,2.90
2015,10,10,09,32,8.00
2015,10,10,09,33,7.20
2015,10,10,09,34,14.10
2015,10,10,09,35,16.30
2015,10,10,09,36,8.80
2015,10,10,09,37,6.60
2015,10,10,09,38,3.90
2015,10,10,09,39,6.30
2015,10,10,09,40,2.90
2015,10,10,09,41,3.60
2015,10,10,09,42,3.20
2015,10,10,09,43,8.60
2015,10,10,09,44,12.20
2015,10,10,09,45,10.10
2015,10,10,09,46,10.30
2015,10,10,09,47,14.20
2015,10,10,09,48,9.50
2015,10,10,09,49,8.10
2015,10,10,09,50,9.00
2015,10,10,09,51,12.60
2015,10,10,09,52,15.70
2015,10,10,09,53,14.50
2015,10,10,09,54,10.70
2015,10,10,09,55,10.70
2015,10,10,09,56,7.40
2015,10,10,09,57,11.70
2015,10,10,09,58,10.10
2015,10,10,09,59,7.90
2015,10,10,10,00,3.90
2015,10,10,10,01,3.20
2015,10,10,10,02,3.40
2015,10,10,10,03,6.70
2015,10,10,10,04,11.30
2015,10,10,10,05,5.30
2015,10,10,10,06,11.90
2015,10,10,10,07,12.70
2015,10,10,10,08,13.40
2015,10,10,10,09,15.90
2015,10,10,10,10,21.70
2015,10,10,10,11,22.00
2015,10,10,10,12,21.80
2015,10,10,10,13,12.20
2015,10,10,10,14,24.40
2015,10,10,10,15,16.10
2015,10,10,10,16,21.80
2015,10,10,10,17,27.10
2015,10,10,10,18,22.50
2015,10,10,10,19,21.70
2015,10,10,10,20,24.10
2015,10,10,10,21,22.50
2015,10,10,10,22,28.10
2015,10,10,10,23,25.30
2015,10,10,10,24,30.60
2015,10,10,10,25,33.90
2015,10,10,10,26,25.90
2015,10,10,10,27,19.70
2015,10,10,10,28,17.20
2015,10,10,10,29,24.10
2015,10,10,10,30,28.40
2015,10,10,10,31,23.50
2015,10,10,10,32,19.60
2015,10,10,10,33,28.50
2015,10,10,10,34,25.70
2015,10,10,10,35,26.60
2015,10,10,10,36,22.80
2015,10,10,10,37,21.50
2015,10,10,10,38,22.90
2015,10,10,10,39,19.60
2015,10,10,10,40,18.10
2015,10,10,10,41,18.10
2015,10,10,10,42,26.00
2015,10,10,10,43,29.40
2015,10,10,10,44,26.40
2015,10,10,10,45,20.70
2015,10,10,10,46,14.80
2015,10,10,10,47,19.70
2015,10,10,10,48,12.70
2015,10,10,10,49,17.50
2015,10,10,10,50,24.10
2015,10,10,10,51,23.70
2015,10,10,10,52,30.50
2015,10,10,10,53,19.70
2015,10,10,10,54,20.20
2015,10,10,10,55,21.30
2015,10,10,10,56,15.20
2015,10,10,10,57,21.50
2015,10,10,10,58,28.20
2015,10,10,10,59,15.30
2015,10,10,11,00,21.50
2015,10,10,11,01,23.60
2015,10,10,11,02,23.30
2015,10,10,11,03,14.40
2015,10,10,11,04,18.50
2015,10,10,11,05,25.10
2015,10,10,11,06,10.60
2015,10,10,11,07,14.60
2015,10,10,11,08,26.90
2015,10,10,11,09,20.30
2015,10,10,11,10,23.50
2015,10,10,11,11,29.60
2015,10,10,11,12,28.70
2015,10,10,11,13,12.20
2015,10,10,11,14,18.20
2015,10,10,11,15,21.40
2015,10,10,11,16,25.70
2015,10,10,11,17,17.80
2015,10,10,11,18,16.40
2015,10,10,11,19,18.80
2015,10,10,11,20,30.70
2015,10,10,11,21,18.90
2015,10,10,11,22,21.10
2015,10,10,11,23,23.80
2015,10,10,11,24,25.70
2015,10,10,11,25,24.20
2015,10,10,11,26,18.80
2015,10,10,11,27,34.80
2015,10,10,11,28,18.70
2015,10,10,11,29,24.70
2015,10,10,11,30,17.60
2015,10,10,11,31,19.50
2015,10,10,11,32,14.10
2015,10,10,11,33,14.90
2015,10,10,11,34,10.40
2015,10,10,11,35,18.00
2015,10,10,11,36,21.90
2015,10,10,11,37,16.00
2015,10,10,11,38,25.50
2015,10,10,11,39,18.70
2015,10,10,11,40,24.10
2015,10,10,11,41,16.90
2015,10,10,11,42,20.30
2015,10,10,11,43,25.80
2015,10,10,11,44,21.70
2015,10,10,11,45,22.50
2015,10,10,11,46,15.30
2015,10,10,11,47,19.10
2015,10,10,11,48,26.90
2015,10,10,11,49,22.30
2015,10,10,11,50,21.40
2015,10,10,11,51,25.10
2015,10,10,11,52,18.90
2015,10,10,11,53,23.70
2015,10,10,11,54,16.90
2015,10,10,11,55,32.70
2015,10,10,11,56,33.30
2015,10,10,11,57,24.40
2015,10,10,11,58,28.60
2015,10,10,11,59,14.20
2015,10,10,12,00,22.50
2015,10,10,12,01,22.50
2015,10,10,12,02,26.00
2015,10,10,12,03,19.90
2015,10,10,12,04,14.80
2015,10,10,12,05,18.80
2015,10,10,12,06,29.10
2015,10,10,12,07,15.20
2015,10,10,12,08,13.90
2015,10,10,12,09,18.50
2015,10,10,12,10,22.00
2015,10,10,12,11,16.50
2015,10,10,12,12,23.90
2015,10,10,12,13,18.10
2015,10,10,12,14,21.80
2015,10,10,12,15,19.40
2015,10,10,12,16,38.40
2015,10,10,12,17,18.80
2015,10,10,12,18,16.20
2015,10,10,12,19,22.50
2015,10,10,12,20,15.70
2015,10,10,12,21,27.50
2015,10,10,12,22,22.20
2015,10,10,12,23,14.00
2015,10,10,12,24,16.30
2015,10,10,12,25,30.70
2015,10,10,12,26,11.60
2015,10,10,12,27,17.20
2015,10,10,12,28,12.50
2015,10,10,12,29,19.30
2015,10,10,12,30,25.90
2015,10,10,12,31,21.60
2015,10,10,12,32,25.10
2015,10,10,12,33,30.60
2015,10,10,12,34,17.60
2015,10,10,12,35,11.60
2015,10,10,12,36,16.30
2015,10,10,12,37,14.50
2015,10,10,12,38,9.80
2015,10,10,12,39,10.30
2015,10,10,12,40,6.90
2015,10,10,12,41,14.40
2015,10,10,12,42,20.50
2015,10,10,12,43,10.10
2015,10,10,12,44,12.20
2015,10,10,12,45,10.10
2015,10,10,12,46,13.50
2015,10,10,12,47,15.10
2015,10,10,12,48,12.90
2015,10,10,12,49,13.10
2015,10,10,12,50,10.10
2015,10,10,12,51,7.50
2015,10,10,12,52,10.30
2015,10,10,12,53,12.60
2015,10,10,12,54,14.20
2015,10,10,12,55,7.60
2015,10,10,12,56,9.10
2015,10,10,12,57,7.20
2015,10,10,12,58,8.10
2015,10,10,12,59,11.90
2015,10,10,13,00,13.10
2015,10,10,13,01,10.60
2015,10,10,13,02,8.00
2015,10,10,13,03,5.60
2015,10,10,13,04,3.00
2015,10,10,13,05,3.70
2015,10,10,13,06,7.10
2015,10,10,13,07,6.60
2015,10,10,13,08,4.60
2015,10,10,13,09,4.90
2015,10,10,13,10,6.00
2015,10,10,13,11,4.20
2015,10,10,13,12,3.30
2015,10,10,13,13,4.40
2015,10,10,13,14,2.40
2015,10,10,13,15,3.20
2015,10,10,13,16,0.90
2015,10,10,13,17,3.10
2015,10,10,13,18,4.30
2015,10,10,13,19,7.10
2015,10,10,13,20,3.80
2015,10,10,13,21,3.90
2015,10,10,13,22,1.10
2015,10,10,13,23,0.10
2015,10,10,13,24,0.00
2015,10,10,13,25,0.70
2015,10,10,13,26,0.10
2015,10,10,13,27,2.70
2015,10,10,13,28,8.20
2015,10,10,13,29,7.40
2015,10,10,13,30,12.80
2015,10,10,13,31,8.50
2015,10,10,13,32,15.40
2015,10,10,13,33,14.20
2015,10,10,13,34,18.60
2015,10,10,13,35,11.90
2015,10,10,13,36,6.10
2015,10,10,13,37,10.20
2015,10,10,13,38,8.80
2015,10,10,13,39,16.50
2015,10,10,13,40,18.70
2015,10,10,13,41,15.10
2015,10,10,13,42,8.20
2015,10,10,13,43,10.70
2015,10,10,13,44,9.50
2015,10,10,13,45,9.80
2015,10,10,13,46,11.20
2015,10,10,13,47,9.90
2015,10,10,13,48,13.60
2015,10,10,13,49,13.00
2015,10,10,13,50,14.70
2015,10,10,13,51,6.50
2015,10,10,13,52,7.80
2015,10,10,13,53,11.70
2015,10,10,13,54,10.90
2015,10,10,13,55,9.40
2015,10,10,13,56,13.80
2015,10,10,13,57,10.60
2015,10,10,13,58,12.10
2015,10,10,13,59,11.20
2015,10,10,14,00,12.70
2015,10,10,14,01,11.20
2015,10,10,14,02,6.90
2015,10,10,14,03,7.70
2015,10,10,14,04,13.80
2015,10,10,14,05,14.20
2015,10,10,14,06,10.50
2015,10,10,14,07,9.90
2015,10,10,14,08,12.20
2015,10,10,14,09,8.00
2015,10,10,14,10,7.10
2015,10,10,14,11,9.00
2015,10,10,14,12,7.90
2015,10,10,14,13,6.20
2015,10,10,14,14,8.40
2015,10,10,14,15,8.80
2015,10,10,14,16,9.70
2015,10,10,14,17,5.10
2015,10,10,14,18,8.30
2015,10,10,14,19,5.50
2015,10,10,14,20,4.30
2015,10,10,14,21,2.20
2015,10,10,14,22,4.40
2015,10,10,14,23,5.00
2015,10,10,14,24,2.70
2015,10,10,14,25,5.20
2015,10,10,14,26,3.20
2015,10,10,14,27,3.30
2015,10,10,14,28,4.90
2015,10,10,14,29,3.40
2015,10,10,14,30,6.00
2015,10,10,14,31,6.30
2015,10,10,14,32,4.30
2015,10,10,14,33,5.20
2015,10,10,14,34,4.80
2015,10,10,14,35,4.80
2015,10,10,14,36,4.90
2015,10,10,14,37,1.90
2015,10,10,14,38,5.90
2015,10,10,14,39,2.60
2015,10,10,14,40,2.60
2015,10,10,14,41,3.90
2015,10,10,14,42,5.30
2015,10,10,14,43,2.50
2015,10,10,14,44,1.40
2015,10,10,14,45,3.40
2015,10,10,14,46,2.30
2015,10,10,14,47,3.80
2015,10,10,14,48,8.70
2015,10,10,14,49,4.10
2015,10,10,14,50,3.20
2015,10,10,14,51,2.70
2015,10,10,14,52,4.80
2015,10,10,14,53,4.50
2015,10,10,14,54,4.80
2015,10,10,14,55,3.50
2015,10,10,14,56,2.60
2015,10,10,14,57,3.50
2015,10,10,14,58,2.50
2015,10,10,14,59,3.60
2015,10,10,15,00,5.20
2015,10,10,15,01,2.90
2015,10,10,15,02,4.00
2015,10,10,15,03,3.50
2015,10,10,15,04,4.50
2015,10,10,15,05,3.00
2015,10,10,15,06,3.80
2015,10,10,15,07,5.10
2015,10,10,15,08,4.20
2015,10,10,15,09,4.20
2015,10,10,15,10,4.80
2015,10,10,15,11,3.60
2015,10,10,15,12,5.40
2015,10,10,15,13,4.40
2015,10,10,15,14,5.30
2015,10,10,15,15,6.70
2015,10,10,15,16,6.10
2015,10,10,15,17,6.40
2015,10,10,15,18,6.70
2015,10,10,15,19,3.40
2015,10,10,15,20,7.70
2015,10,10,15,21,5.10
2015,10,10,15,22,6.40
2015,10,10,15,23,6.60
2015,10,10,15,24,7.90
2015,10,10,15,25,6.60
2015,10,10,15,26,9.00
2015,10,10,15,27,6.60
2015,10,10,15,28,5.90
2015,10,10,15,29,14.30
2015,10,10,15,30,5.70
2015,10,10,15,31,7.60
2015,10,10,15,32,4.90
2015,10,10,15,33,8.10
2015,10,10,15,34,10.70
2015,10,10,15,35,10.90
2015,10,10,15,36,8.10
2015,10,10,15,37,9.40
2015,10,10,15,38,5.30
2015,10,10,15,39,5.10
2015,10,10,15,40,4.80
2015,10,10,15,41,5.10
2015,10,10,15,42,7.60
2015,10,10,15,43,6.30
2015,10,10,15,44,4.20
2015,10,10,15,45,7.80
2015,10,10,15,46,4.30
2015,10,10,15,47,4.20
2015,10,10,15,48,6.60
2015,10,10,15,49,6.00
2015,10,10,15,50,5.40
2015,10,10,15,51,6.50
2015,10,10,15,52,5.10
2015,10,10,15,53,2.00
2015,10,10,15,54,2.40
2015,10,10,15,55,4.90
2015,10,10,15,56,3.90
2015,10,10,15,57,3.30
2015,10,10,15,58,2.40
2015,10,10,15,59,5.20
2015,10,10,16,00,5.20
2015,10,10,16,01,5.80
2015,10,10,16,02,6.10
2015,10,10,16,03,4.70
2015,10,10,16,04,3.90
2015,10,10,16,05,2.70
2015,10,10,16,06,2.90
2015,10,10,16,07,1.50
2015,10,10,16,08,0.10
2015,10,10,16,09,0.00
2015,10,10,16,10,1.40
2015,10,10,16,11,2.40
2015,10,10,16,12,1.70
2015,10,10,16,13,0.80
2015,10,10,16,14,1.30
2015,10,10,16,15,1.00
2015,10,10,16,16,2.60
2015,10,10,16,17,2.00
2015,10,10,16,18,4.50
2015,10,10,16,19,2.40
2015,10,10,16,20,3.20
2015,10,10,16,21,4.40
2015,10,10,16,22,3.00
2015,10,10,16,23,1.80
2015,10,10,16,24,1.00
2015,10,10,16,25,0.80
2015,10,10,16,26,1.60
2015,10,10,16,27,1.00
2015,10,10,16,28,1.40
2015,10,10,16,29,0.00
2015,10,10,16,30,2.40
2015,10,10,16,31,3.60
2015,10,10,16,32,4.70
2015,10,10,16,33,4.80
2015,10,10,16,34,3.80
2015,10,10,16,35,2.90
2015,10,10,16,36,3.10
2015,10,10,16,37,3.40
2015,10,10,16,38,0.80
2015,10,10,16,39,1.30
2015,10,10,16,40,1.40
2015,10,10,16,41,2.80
2015,10,10,16,42,2.50
2015,10,10,16,43,2.40
2015,10,10,16,44,3.30
2015,10,10,16,45,2.80
2015,10,10,16,46,2.10
2015,10,10,16,47,2.20
2015,10,10,16,48,0.50
2015,10,10,16,49,0.40
2015,10,10,16,50,0.50
2015,10,10,16,51,1.10
2015,10,10,16,52,0.70
2015,10,10,16,53,2.70
2015,10,10,16,54,3.30
2015,10,10,16,55,1.40
2015,10,10,16,56,0.20
2015,10,10,16,57,1.40
2015,10,10,16,58,0.20
2015,10,10,16,59,0.00
2015,10,10,17,00,0.40
2015,10,10,17,01,0.10
2015,10,10,17,02,0.00
2015,10,10,17,03,0.00
2015,10,10,17,04,2.60
2015,10,10,17,05,3.30
2015,10,10,17,06,2.00
2015,10,10,17,07,2.00
2015,10,10,17,08,0.70
2015,10,10,17,09,0.10
2015,10,10,17,10,1.20
2015,10,10,17,11,0.90
2015,10,10,17,12,0.90
2015,10,10,17,13,1.00
2015,10,10,17,14,0.40
2015,10,10,17,15,0.50
2015,10,10,17,16,0.00
2015,10,10,17,17,0.50
2015,10,10,17,18,0.20
2015,10,10,17,19,1.40
2015,10,10,17,20,3.90
2015,10,10,17,21,2.00
2015,10,10,17,22,1.60
2015,10,10,17,23,1.60
2015,10,10,17,24,1.60
2015,10,10,17,25,1.60
2015,10,10,17,26,1.60
2015,10,10,17,27,0.40
2015,10,10,17,28,1.00
2015,10,10,17,29,0.00
2015,10,10,17,30,0.40
2015,10,10,17,31,3.20
2015,10,10,17,32,2.30
2015,10,10,17,33,1.70
2015,10,10,17,34,0.30
2015,10,10,17,35,1.90
2015,10,10,17,36,0.20
2015,10,10,17,37,0.00
2015,10,10,17,38,0.00
2015,10,10,17,39,0.00